• In Lithuania
  • List of Countries
  • For 7 days
  • Water Temperature
  • Satellite Maps
  • Weather Map
  • Weather Widgets
  • user-avatar
    Login

    Hourly Weather La Paz

    Today, 25 February, Sunday

    Time Temperature Precipitation Wind Pressure Humidity
    00:00 +19°C° 0 mm 1 mps 700 mmHg 79%
    01:00 +19°C° 0 mm 1 mps 700 mmHg 81%
    02:00 +18°C° 0 mm 1 mps 699 mmHg 83%
    03:00 +18°C° 0 mm 1 mps 699 mmHg 85%
    04:00 +18°C° 0 mm 1 mps 699 mmHg 86%
    05:00 +18°C° 0 mm 1 mps 699 mmHg 87%
    06:00 +16°C° 0 mm 1 mps 700 mmHg 88%
    07:00 +21°C° 0 mm 1 mps 700 mmHg 75%
    08:00 +24°C° 0 mm 1 mps 701 mmHg 62%
    09:00 +27°C° 0 mm 1 mps 702 mmHg 48%
    10:00 +29°C° 0 mm 1 mps 702 mmHg 41%
    11:00 +31°C° 0 mm 1 mps 702 mmHg 34%
    12:00 +34°C° 0 mm 2 mps 702 mmHg 27%
    13:00 +33°C° 0 mm 1 mps 701 mmHg 28%
    14:00 +32°C° 0 mm 1 mps 700 mmHg 29%
    15:00 +31°C° 0 mm 1 mps 699 mmHg 29%
    16:00 +29°C° 0 mm 1 mps 699 mmHg 34%
    17:00 +27°C° 0 mm 1 mps 699 mmHg 39%
    18:00 +26°C° 0 mm 1 mps 699 mmHg 43%
    19:00 +24°C° 0.1 mm 1 mps 699 mmHg 50%
    20:00 +21°C° 0.1 mm 0 mps 700 mmHg 57%
    21:00 +20°C° 0.1 mm 0 mps 700 mmHg 65%
    22:00 +21°C° 0 mm 1 mps 700 mmHg 68%
    23:00 +20°C° 0 mm 1 mps 700 mmHg 72%

    Tomorrow, 26 February, Monday

    Time Temperature Precipitation Wind Pressure Humidity
    00:00 +20°C° 0 mm 1 mps 700 mmHg 76%
    01:00 +19°C° 0 mm 1 mps 700 mmHg 78%
    02:00 +19°C° 0 mm 1 mps 700 mmHg 81%
    03:00 +18°C° 0 mm 1 mps 699 mmHg 84%
    04:00 +18°C° 0 mm 1 mps 699 mmHg 85%
    05:00 +18°C° 0 mm 1 mps 700 mmHg 86%
    06:00 +18°C° 0 mm 1 mps 700 mmHg 88%
    07:00 +21°C° 0 mm 1 mps 701 mmHg 76%
    08:00 +24°C° 0 mm 1 mps 702 mmHg 63%
    09:00 +27°C° 0 mm 1 mps 702 mmHg 51%
    10:00 +29°C° 0 mm 1 mps 702 mmHg 43%
    11:00 +31°C° 0 mm 2 mps 702 mmHg 36%
    12:00 +34°C° 0 mm 2 mps 702 mmHg 29%
    13:00 +34°C° 0 mm 2 mps 701 mmHg 28%
    14:00 +32°C° 0 mm 2 mps 700 mmHg 28%
    15:00 +32°C° 0 mm 2 mps 699 mmHg 28%
    16:00 +30°C° 0 mm 2 mps 699 mmHg 33%
    17:00 +28°C° 0 mm 1 mps 699 mmHg 38%
    18:00 +26°C° 0 mm 1 mps 699 mmHg 43%
    19:00 +25°C° 0 mm 1 mps 700 mmHg 52%
    20:00 +23°C° 0 mm 1 mps 700 mmHg 61%
    21:00 +22°C° 0 mm 1 mps 701 mmHg 70%
    22:00 +21°C° 0 mm 1 mps 701 mmHg 76%
    23:00 +20°C° 0 mm 1 mps 701 mmHg 81%

    Day after tomorrow, 27 February, Tuesday

    Time Temperature Precipitation Wind Pressure Humidity
    00:00 +20°C° 0 mm 1 mps 701 mmHg 87%
    01:00 +19°C° 0 mm 1 mps 700 mmHg 89%
    02:00 +19°C° 0 mm 1 mps 700 mmHg 91%
    03:00 +19°C° 0 mm 1 mps 700 mmHg 94%
    04:00 +19°C° 0 mm 1 mps 700 mmHg 94%
    05:00 +18°C° 0 mm 1 mps 700 mmHg 95%
    06:00 +18°C° 0 mm 1 mps 700 mmHg 95%
    07:00 +21°C° 0 mm 1 mps 701 mmHg 82%
    08:00 +24°C° 0 mm 2 mps 702 mmHg 69%
    09:00 +26°C° 0 mm 2 mps 703 mmHg 56%
    10:00 +28°C° 0 mm 2 mps 702 mmHg 49%
    11:00 +30°C° 0 mm 2 mps 702 mmHg 42%
    12:00 +33°C° 0 mm 3 mps 702 mmHg 34%
    13:00 +31°C° 0 mm 3 mps 701 mmHg 35%
    14:00 +31°C° 0 mm 3 mps 700 mmHg 36%
    15:00 +31°C° 0 mm 3 mps 699 mmHg 37%
    16:00 +29°C° 0 mm 3 mps 699 mmHg 43%
    17:00 +27°C° 0 mm 2 mps 699 mmHg 49%
    18:00 +26°C° 0 mm 2 mps 699 mmHg 55%
    19:00 +24°C° 0 mm 2 mps 699 mmHg 64%
    20:00 +22°C° 0 mm 1 mps 700 mmHg 73%
    21:00 +21°C° 0 mm 1 mps 700 mmHg 82%
    22:00 +20°C° 0 mm 1 mps 700 mmHg 85%
    23:00 +20°C° 0 mm 1 mps 700 mmHg 89%

    28 February, Wednesday

    Time Temperature Precipitation Wind Pressure Humidity
    00:00 +19°C° 0 mm 1 mps 700 mmHg 92%
    01:00 +19°C° 0 mm 1 mps 700 mmHg 93%
    02:00 +19°C° 0 mm 1 mps 699 mmHg 94%
    03:00 +19°C° 0 mm 1 mps 699 mmHg 94%
    04:00 +19°C° 0 mm 1 mps 699 mmHg 94%
    05:00 +19°C° 0 mm 1 mps 699 mmHg 95%
    06:00 +19°C° 0 mm 1 mps 699 mmHg 95%
    07:00 +21°C° 0 mm 1 mps 700 mmHg 83%
    08:00 +24°C° 0 mm 1 mps 701 mmHg 71%
    09:00 +26°C° 0 mm 1 mps 701 mmHg 59%
    10:00 +28°C° 0 mm 2 mps 701 mmHg 47%
    11:00 +30°C° 0 mm 2 mps 701 mmHg 36%
    12:00 +34°C° 0 mm 2 mps 700 mmHg 25%
    13:00 +34°C° 0 mm 2 mps 700 mmHg 24%
    14:00 +34°C° 0 mm 2 mps 699 mmHg 22%
    15:00 +35°C° 0 mm 2 mps 698 mmHg 21%
    16:00 +31°C° 0 mm 2 mps 698 mmHg 26%
    17:00 +29°C° 0 mm 2 mps 698 mmHg 32%
    18:00 +26°C° 0 mm 1 mps 698 mmHg 38%
    19:00 +24°C° 0 mm 1 mps 698 mmHg 46%
    20:00 +23°C° 0 mm 1 mps 699 mmHg 55%
    21:00 +19°C° 0 mm 0 mps 699 mmHg 63%
    22:00 +21°C° 0 mm 1 mps 699 mmHg 65%
    23:00 +21°C° 0 mm 1 mps 699 mmHg 67%

    1 March, Thursday

    Time Temperature Precipitation Wind Pressure Humidity
    00:00 +20°C° 0 mm 1 mps 699 mmHg 69%
    01:00 +20°C° 0 mm 1 mps 699 mmHg 72%
    02:00 +19°C° 0 mm 1 mps 698 mmHg 75%
    03:00 +19°C° 0 mm 1 mps 698 mmHg 78%
    04:00 +19°C° 0 mm 1 mps 698 mmHg 80%
    05:00 +19°C° 0 mm 1 mps 698 mmHg 82%
    06:00 +18°C° 0 mm 1 mps 699 mmHg 84%
    07:00 +22°C° 0 mm 1 mps 700 mmHg 72%
    08:00 +25°C° 0 mm 1 mps 700 mmHg 61%
    09:00 +28°C° 0 mm 1 mps 701 mmHg 50%
    10:00 +30°C° 0 mm 1 mps 701 mmHg 42%
    11:00 +33°C° 0 mm 1 mps 701 mmHg 34%
    12:00 +35°C° 0 mm 1 mps 700 mmHg 26%
    13:00 +36°C° 0 mm 2 mps 700 mmHg 24%
    14:00 +36°C° 0 mm 2 mps 699 mmHg 23%
    15:00 +36°C° 0 mm 2 mps 698 mmHg 22%
    16:00 +32°C° 0 mm 2 mps 698 mmHg 27%
    17:00 +30°C° 0 mm 1 mps 698 mmHg 32%
    18:00 +27°C° 0 mm 1 mps 698 mmHg 38%
    19:00 +25°C° 0 mm 1 mps 698 mmHg 46%
    20:00 +24°C° 0 mm 1 mps 699 mmHg 55%
    21:00 +20°C° 0 mm 0 mps 699 mmHg 63%
    22:00 +21°C° 0 mm 1 mps 699 mmHg 66%
    23:00 +21°C° 0 mm 1 mps 699 mmHg 69%

    2 March, Friday

    Time Temperature Precipitation Wind Pressure Humidity
    00:00 +20°C° 0 mm 1 mps 699 mmHg 71%
    01:00 +20°C° 0 mm 1 mps 699 mmHg 74%
    02:00 +19°C° 0 mm 1 mps 699 mmHg 76%
    03:00 +19°C° 0 mm 1 mps 699 mmHg 79%
    04:00 +19°C° 0 mm 1 mps 699 mmHg 82%
    05:00 +19°C° 0 mm 1 mps 699 mmHg 85%
    06:00 +18°C° 0 mm 1 mps 699 mmHg 88%
    07:00 +21°C° 0 mm 1 mps 700 mmHg 76%
    08:00 +25°C° 0 mm 1 mps 701 mmHg 64%
    09:00 +28°C° 0 mm 1 mps 701 mmHg 51%
    10:00 +29°C° 0 mm 2 mps 701 mmHg 44%
    11:00 +31°C° 0 mm 2 mps 701 mmHg 38%
    12:00 +34°C° 0 mm 2 mps 700 mmHg 31%
    13:00 +34°C° 0 mm 3 mps 700 mmHg 30%
    14:00 +34°C° 0 mm 3 mps 699 mmHg 30%
    15:00 +34°C° 0 mm 3 mps 698 mmHg 29%
    16:00 +31°C° 0 mm 2 mps 698 mmHg 36%
    17:00 +29°C° 0 mm 2 mps 698 mmHg 43%
    18:00 +27°C° 0 mm 2 mps 698 mmHg 50%
    19:00 +25°C° 0.1 mm 2 mps 699 mmHg 60%
    20:00 +24°C° 0.1 mm 1 mps 699 mmHg 69%
    21:00 +22°C° 0.1 mm 1 mps 699 mmHg 79%
    22:00 +22°C° 0 mm 1 mps 699 mmHg 83%
    23:00 +21°C° 0 mm 1 mps 699 mmHg 87%
    Show more